Location: *
(51.8167°N, 12.5000°E)
Time: 00:35:50
(UTC+00:00)

Cosmos 1605 Rocket - Pass Details

Date: 16 September 2019
Orbit: 945 x 1005 km, 82.9° (Epoch: 19 October)

Event Time Altitude Azimuth Distance (km) Brightness Sun altitude
Rises 21:31:18 0° 348° (NNW) 3,748 8.1 -32.2°
Reaches altitude 10° 21:33:51 10° 347° (NNW) 2,793 7.2 -32.4°
Enters shadow 21:39:38 68° 306° (NW) 1,078 4.2 -32.8°
